Regional Weather Roundup
Issued by NWS Little Rock, AR

Home | Current Version | Previous Version | Graphics & Text | Print | Product List | Glossary On
Versions: 1 2 3 4 5 6 7 8 9 10 11 12 13 14 15 16 17 18 19 20 21 22 23 24 25 26 27 28 29 30 31 32 33 34 35 36 37 38 39 40 41 42 43 44 45 46 47 48 49 50
000
ASUS44 KLZK 240805
RWRLZK

WEATHER ROUNDUP FOR ARKANSAS
NATIONAL WEATHER SERVICE LITTLE ROCK AR
200 AM CST TUE JAN 24 2017

NOTE: "FAIR" INDICATES FEW OR NO CLOUDS BELOW 12,000 FEET WITH NO
SIGNIFICANT WEATHER AND/OR OBSTRUCTIONS TO VISIBILITY.

ARZ001-003-010-029-240900-
NORTHWEST ARKANSAS

CITY           SKY/WX    TMP DP  RH WIND       PRES   REMARKS
FAYETTEVILLE   CLEAR     29  29 100 CALM      29.78F
FORT SMITH     CLEAR     39  35  86 E6        29.80S
HARRISON       CLEAR     32  31  96 SE9       29.82S WCI  24
BENTONVILLE    CLEAR    N/A N/A N/A SE9       29.77F
ROGERS         CLEAR     38  35  89 SE9       29.78F
SILOAM SPGS      N/A    N/A N/A N/A MISG        N/A
HIGHFILL       CLEAR     38  32  79 SE6       29.76F
$$

ARZ004-005-016-240900-
NORTH CENTRAL ARKANSAS

CITY           SKY/WX    TMP DP  RH WIND       PRES   REMARKS
BATESVILLE     CLEAR     34  30  86 CALM      29.89R
FLIPPIN        PTCLDY    30  27  86 CALM      29.82S
MTN HOME       CLEAR     36  33  89 SE3       29.83F
$$

ARZ040-041-240900-
WEST CENTRAL ARKANSAS

CITY           SKY/WX    TMP DP  RH WIND       PRES   REMARKS
MENA           CLEAR     36  34  93 CALM      29.83S
MOUNT IDA      CLEAR     33  32  96 CALM      29.81S
$$

ARZ009-017-025-026-028-240900-
NORTHEAST ARKANSAS

CITY           SKY/WX    TMP DP  RH WIND       PRES   REMARKS
CORNING        FAIR      36  36 100 NE6       29.90R
JONESBORO      CLEAR     35  33  92 CALM      29.89R
NEWPORT        CLEAR     38  38 100 N5        29.89R
WALNUT RIDGE   CLEAR     36  30  80 NW3       29.89R
BLYTHEVILLE    PTCLDY    37  34  89 CALM      29.90R
$$

ARZ022-023-033-042-044-240900-
CENTRAL ARKANSAS

CITY           SKY/WX    TMP DP  RH WIND       PRES   REMARKS
LITTLE ROCK    CLEAR     37  37 100 CALM      29.88S
N LITTLE ROCK    N/A     44  38  79 CALM      29.89S
JACKSONVILLE   CLEAR     34  33  99 CALM      29.87R
SEARCY         CLEAR     35  35 100 CALM      29.90R
HOT SPRINGS    CLEAR     37  35  92 CALM      29.86R
RUSSELLVILLE   PTCLDY    35  34  96 CALM      29.85R
CLINTON        MOCLDY    30  30 100 CALM      29.88R FOG
$$

ARZ036-240900-
EAST ARKANSAS

CITY           SKY/WX    TMP DP  RH WIND       PRES   REMARKS
WEST MEMPHIS   CLEAR     36  36 100 CALM      29.88R
$$

ARZ050-053-066-070-073-240900-
SOUTHWEST ARKANSAS

CITY           SKY/WX    TMP DP  RH WIND       PRES   REMARKS
ARKADELPHIA    FAIR      38  38 100 CALM      29.88R
CAMDEN         CLEAR     36  32  87 CALM      29.88R
TEXARKANA      CLEAR     47  39  74 SE6       29.83F
EL DORADO        N/A    N/A N/A N/A MISG      29.87S
DE QUEEN       CLEAR     36  36 100 NE3       29.82S
$$

ARZ056-057-069-240900-
SOUTHEAST ARKANSAS

CITY           SKY/WX    TMP DP  RH WIND       PRES   REMARKS
PINE BLUFF     CLEAR     39  38  96 CALM      29.88S
STUTTGART      CLEAR     43  36  75 CALM      29.89R
MONTICELLO     CLEAR     44  40  85 CALM      29.89R

$$





USA.gov is the U.S. government's official web portal to all federal, state and local government web resources and services.